Rechercher aéroport 
image banner adimage banner ad
image banner ad

DAUI - In Salah

Situé à In Salah, Algeria

ICAO - DAUI, IATA - INZ

Données fournies par Airmate  

Information générale

Coordonnées: N27°15'13" E2°30'39"
Élévation : 895 feet MSL.
 
Voir autres Aéroports à Tamanghasset Province

Données opérationnelles

Accessible au public
Heure actuelle UTC:
Heure actuelle locale:
Météo
METAR: DAUI 230000Z 32006KT CAVOK 26/01 Q1016
TAF: TAF DAUI 222300Z 2300/2324 VRB02KT CAVOK BECMG 2303/2306 04010KT
Voir NOTAMs / SUP AIP / TFR affectant cet aéroport [VIEW]
Fréquences de communication: [VIEW]

Pistes:

Identifiant RWYQFULongueur (ft)Largeur (ft)SurfaceLDA (ft)
0551°9843148ASP
23231°9843148

Coordonnées de l'aéroport

Adresse: In Salah Algeria

Vue satellite de DAUI